Time,TemperatureF,DewpointF,PressureIn,WindDirection,WindDirectionDegrees,WindSpeedMPH,WindSpeedGustMPH,Humidity,HourlyPrecipIn,Conditions,Clouds,dailyrainin,SolarRadiationWatts/m^2,SoftwareType,DateUTC
2013-01-11 00:01:00,37.6,33.8,30.30,SSW,207,0.0,0.0,86,0.00,,,0.00,0.0,custom,2013-01-11 08:01:00,
2013-01-11 00:06:00,37.7,33.6,30.30,SSW,207,0.0,0.0,85,0.00,,,0.00,0.0,custom,2013-01-11 08:06:00,
2013-01-11 00:11:00,37.7,33.6,30.30,SSW,207,0.0,0.0,85,0.00,,,0.00,0.0,custom,2013-01-11 08:11:00,
2013-01-11 00:16:00,37.7,33.3,30.30,SSW,207,0.0,0.0,84,0.00,,,0.00,0.0,custom,2013-01-11 08:16:00,
2013-01-11 00:21:00,37.8,33.4,30.30,SSW,206,0.0,0.0,84,0.00,,,0.00,0.0,custom,2013-01-11 08:21:00,
2013-01-11 00:26:00,37.9,33.5,30.30,SSW,207,0.0,0.0,84,0.00,,,0.00,0.0,custom,2013-01-11 08:26:00,
2013-01-11 00:31:00,37.9,33.5,30.30,SSW,207,0.0,0.0,84,0.00,,,0.00,0.0,custom,2013-01-11 08:31:00,
2013-01-11 00:36:00,38.0,33.6,30.30,SSW,206,0.0,0.0,84,0.00,,,0.00,0.0,custom,2013-01-11 08:36:00,
2013-01-11 00:41:00,38.0,33.6,30.30,SSW,206,0.0,0.0,84,0.00,,,0.00,0.0,custom,2013-01-11 08:41:00,
2013-01-11 00:46:00,37.9,33.5,30.30,SSW,207,0.0,0.0,84,0.00,,,0.00,0.0,custom,2013-01-11 08:46:00,
2013-01-11 00:51:00,37.8,33.4,30.30,SSW,207,0.0,0.0,84,0.00,,,0.00,0.0,custom,2013-01-11 08:51:00,
2013-01-11 00:56:00,37.7,33.3,30.30,SSW,207,0.0,0.0,84,0.00,,,0.00,0.0,custom,2013-01-11 08:56:00,
2013-01-11 01:01:00,37.7,33.3,30.30,SSW,207,0.0,0.0,84,0.00,,,0.00,0.0,custom,2013-01-11 09:01:00,
2013-01-11 01:11:00,37.3,33.2,30.30,SSW,207,0.0,0.0,85,0.00,,,0.00,0.0,custom,2013-01-11 09:11:00,
2013-01-11 01:16:00,37.2,33.1,30.30,SSW,206,0.0,0.0,85,0.00,,,0.00,0.0,custom,2013-01-11 09:16:00,
2013-01-11 01:21:00,37.0,32.9,30.30,SSW,206,0.0,0.0,85,0.00,,,0.00,0.0,custom,2013-01-11 09:21:00,
2013-01-11 01:26:00,36.8,32.7,30.30,SSW,207,0.0,0.0,85,0.00,,,0.00,0.0,custom,2013-01-11 09:26:00,
2013-01-11 01:31:00,36.6,32.8,30.30,SSW,207,0.0,0.0,86,0.00,,,0.00,0.0,custom,2013-01-11 09:31:00,
2013-01-11 01:36:00,36.5,32.4,30.30,SSW,206,0.0,0.0,85,0.00,,,0.00,0.0,custom,2013-01-11 09:36:00,
2013-01-11 01:41:00,36.3,32.5,30.30,SSW,207,0.0,0.0,86,0.00,,,0.00,0.0,custom,2013-01-11 09:41:00,
2013-01-11 01:46:00,36.1,32.3,30.30,SSW,207,0.0,0.0,86,0.00,,,0.00,0.0,custom,2013-01-11 09:46:00,
2013-01-11 01:51:00,36.0,32.2,30.30,SSW,207,0.0,0.0,86,0.00,,,0.00,0.0,custom,2013-01-11 09:51:00,
2013-01-11 01:56:00,36.0,32.5,30.30,SSW,206,0.0,0.0,87,0.00,,,0.00,0.0,custom,2013-01-11 09:56:00,
2013-01-11 02:01:00,36.0,32.5,30.30,SSW,207,0.0,0.0,87,0.00,,,0.00,0.0,custom,2013-01-11 10:01:00,
2013-01-11 02:06:00,36.1,32.6,30.30,SSW,207,0.0,0.0,87,0.00,,,0.00,0.0,custom,2013-01-11 10:06:00,
2013-01-11 02:11:00,36.3,32.8,30.30,SSW,207,0.0,0.0,87,0.00,,,0.00,0.0,custom,2013-01-11 10:11:00,
2013-01-11 02:16:00,36.5,33.0,30.30,SSW,206,0.0,0.0,87,0.00,,,0.00,0.0,custom,2013-01-11 10:16:00,
2013-01-11 02:21:00,36.7,33.2,30.30,SSW,207,0.0,0.0,87,0.00,,,0.00,0.0,custom,2013-01-11 10:21:00,
2013-01-11 02:26:00,36.8,33.3,30.30,SSW,207,0.0,0.0,87,0.00,,,0.00,0.0,custom,2013-01-11 10:26:00,
2013-01-11 02:31:00,36.9,33.4,30.30,SSW,207,0.0,0.0,87,0.00,,,0.00,0.0,custom,2013-01-11 10:31:00,
2013-01-11 02:36:00,37.0,33.5,30.30,SSW,207,0.0,0.0,87,0.00,,,0.00,0.0,custom,2013-01-11 10:36:00,
2013-01-11 02:41:00,37.1,33.6,30.30,SSW,207,0.0,0.0,87,0.00,,,0.00,0.0,custom,2013-01-11 10:41:00,
2013-01-11 02:46:00,37.3,33.5,30.30,SSW,207,0.0,0.0,86,0.00,,,0.00,0.0,custom,2013-01-11 10:46:00,
2013-01-11 02:51:00,37.4,33.6,30.30,SSW,206,0.0,0.0,86,0.00,,,0.00,0.0,custom,2013-01-11 10:51:00,
2013-01-11 02:56:00,37.5,33.7,30.30,SSW,207,0.0,0.0,86,0.00,,,0.00,0.0,custom,2013-01-11 10:56:00,
2013-01-11 03:01:00,37.5,33.7,30.30,SSW,207,0.0,0.0,86,0.00,,,0.00,0.0,custom,2013-01-11 11:01:00,
2013-01-11 03:06:00,37.4,33.6,30.30,SSW,207,0.0,0.0,86,0.00,,,0.00,0.0,custom,2013-01-11 11:06:00,
2013-01-11 03:11:00,37.2,33.4,30.30,SSW,206,0.0,0.0,86,0.00,,,0.00,0.0,custom,2013-01-11 11:11:00,
2013-01-11 03:16:00,37.1,33.3,30.30,SSW,207,0.0,0.0,86,0.00,,,0.00,0.0,custom,2013-01-11 11:16:00,
2013-01-11 03:21:00,37.0,33.2,30.30,SSW,207,0.0,0.0,86,0.00,,,0.00,0.0,custom,2013-01-11 11:21:00,
2013-01-11 03:26:00,36.9,33.1,30.30,SSW,206,0.0,0.0,86,0.00,,,0.00,0.0,custom,2013-01-11 11:26:00,
2013-01-11 03:31:00,36.8,33.3,30.30,SSW,206,0.0,0.0,87,0.00,,,0.00,0.0,custom,2013-01-11 11:31:00,
2013-01-11 03:36:00,36.7,33.2,30.30,SSW,207,0.0,0.0,87,0.00,,,0.00,0.0,custom,2013-01-11 11:36:00,
2013-01-11 03:41:00,36.6,32.8,30.30,SSW,207,0.0,0.0,86,0.00,,,0.00,0.0,custom,2013-01-11 11:41:00,
2013-01-11 03:46:00,36.4,32.6,30.30,SSW,207,0.0,0.0,86,0.00,,,0.00,0.0,custom,2013-01-11 11:46:00,
2013-01-11 03:56:00,36.1,32.6,30.30,SSW,207,0.0,0.0,87,0.00,,,0.00,0.0,custom,2013-01-11 11:56:00,
2013-01-11 04:01:00,35.9,32.4,30.30,SSW,206,0.0,0.0,87,0.00,,,0.00,0.0,custom,2013-01-11 12:01:00,
2013-01-11 04:06:00,35.7,32.2,30.30,SSW,206,0.0,0.0,87,0.00,,,0.00,0.0,custom,2013-01-11 12:06:00,
2013-01-11 04:11:00,35.6,32.1,30.30,SSW,207,0.0,0.0,87,0.00,,,0.00,0.0,custom,2013-01-11 12:11:00,
2013-01-11 04:16:00,35.4,31.9,30.30,SSW,207,0.0,0.0,87,0.00,,,0.00,0.0,custom,2013-01-11 12:16:00,
2013-01-11 04:21:00,35.3,32.1,30.30,SSW,207,0.0,0.0,88,0.00,,,0.00,0.0,custom,2013-01-11 12:21:00,
2013-01-11 04:26:00,35.3,32.1,30.30,SSW,206,0.0,0.0,88,0.00,,,0.00,0.0,custom,2013-01-11 12:26:00,
2013-01-11 04:31:00,35.2,32.0,30.30,SSW,207,0.0,0.0,88,0.00,,,0.00,0.0,custom,2013-01-11 12:31:00,
2013-01-11 04:36:00,35.3,32.1,30.30,SSW,207,0.0,0.0,88,0.00,,,0.00,0.0,custom,2013-01-11 12:36:00,
2013-01-11 04:41:00,35.3,32.1,30.30,SSW,206,0.0,0.0,88,0.00,,,0.00,0.0,custom,2013-01-11 12:41:00,
2013-01-11 04:46:00,35.2,32.0,30.30,SSW,207,0.0,0.0,88,0.00,,,0.00,0.0,custom,2013-01-11 12:46:00,
2013-01-11 04:51:00,35.2,32.0,30.30,SSW,207,0.0,0.0,88,0.00,,,0.00,0.0,custom,2013-01-11 12:51:00,
2013-01-11 04:56:00,35.1,31.9,30.30,SSW,207,0.0,0.0,88,0.00,,,0.00,0.0,custom,2013-01-11 12:56:00,
2013-01-11 05:01:00,35.1,31.9,30.30,SSW,207,0.0,0.0,88,0.00,,,0.00,0.0,custom,2013-01-11 13:01:00,
2013-01-11 05:06:00,35.1,31.9,30.31,SSW,207,0.0,0.0,88,0.00,,,0.00,0.0,custom,2013-01-11 13:06:00,
2013-01-11 05:11:00,35.0,31.8,30.31,SSW,207,0.0,0.0,88,0.00,,,0.00,0.0,custom,2013-01-11 13:11:00,
2013-01-11 05:16:00,35.0,31.8,30.31,SSW,206,0.0,0.0,88,0.00,,,0.00,0.0,custom,2013-01-11 13:16:00,
2013-01-11 05:21:00,34.8,31.6,30.31,SSW,206,0.0,0.0,88,0.00,,,0.00,0.0,custom,2013-01-11 13:21:00,
2013-01-11 05:26:00,34.6,31.4,30.31,SSW,207,0.0,0.0,88,0.00,,,0.00,0.0,custom,2013-01-11 13:26:00,
2013-01-11 05:31:00,34.4,31.2,30.32,SSW,207,0.0,0.0,88,0.00,,,0.00,0.0,custom,2013-01-11 13:31:00,
2013-01-11 05:36:00,34.4,31.2,30.32,SSW,207,0.0,0.0,88,0.00,,,0.00,0.0,custom,2013-01-11 13:36:00,
2013-01-11 05:41:00,34.4,31.2,30.32,SSW,207,0.0,0.0,88,0.00,,,0.00,0.0,custom,2013-01-11 13:41:00,
2013-01-11 05:46:00,34.4,31.2,30.32,SSW,207,0.0,0.0,88,0.00,,,0.00,0.0,custom,2013-01-11 13:46:00,
2013-01-11 05:51:00,34.2,31.0,30.32,SSW,207,0.0,0.0,88,0.00,,,0.00,0.0,custom,2013-01-11 13:51:00,
2013-01-11 05:56:00,34.1,30.9,30.32,SSW,207,0.0,0.0,88,0.00,,,0.00,0.0,custom,2013-01-11 13:56:00,
2013-01-11 06:01:00,34.0,30.8,30.32,SSW,206,0.0,0.0,88,0.00,,,0.00,0.0,custom,2013-01-11 14:01:00,
2013-01-11 06:06:00,33.8,30.6,30.33,SSW,207,0.0,0.0,88,0.00,,,0.00,0.0,custom,2013-01-11 14:06:00,
2013-01-11 06:11:00,33.8,30.6,30.33,SSW,207,0.0,0.0,88,0.00,,,0.00,0.0,custom,2013-01-11 14:11:00,
2013-01-11 06:16:00,33.6,30.4,30.33,SSW,206,0.0,0.0,88,0.00,,,0.00,0.0,custom,2013-01-11 14:16:00,
2013-01-11 06:21:00,33.5,30.3,30.33,SSW,207,0.0,0.0,88,0.00,,,0.00,0.0,custom,2013-01-11 14:21:00,
2013-01-11 06:26:00,33.3,30.1,30.33,SSW,207,0.0,0.0,88,0.00,,,0.00,0.0,custom,2013-01-11 14:26:00,
2013-01-11 06:31:00,33.2,30.0,30.34,SSW,207,0.0,0.0,88,0.00,,,0.00,0.0,custom,2013-01-11 14:31:00,
2013-01-11 06:36:00,33.1,29.9,30.34,SSW,206,0.0,0.0,88,0.00,,,0.00,0.0,custom,2013-01-11 14:36:00,
2013-01-11 06:41:00,33.1,30.2,30.34,SSW,207,0.0,0.0,89,0.00,,,0.00,0.0,custom,2013-01-11 14:41:00,
2013-01-11 06:46:00,33.1,30.2,30.34,SSW,207,0.0,0.0,89,0.00,,,0.00,0.0,custom,2013-01-11 14:46:00,
2013-01-11 06:51:00,33.2,30.3,30.34,SSW,206,0.0,0.0,89,0.00,,,0.00,0.0,custom,2013-01-11 14:51:00,
2013-01-11 06:56:00,33.2,30.3,30.34,SSW,206,0.0,0.0,89,0.00,,,0.00,0.0,custom,2013-01-11 14:56:00,
2013-01-11 07:01:00,33.0,30.1,30.34,SSW,207,0.0,0.0,89,0.00,,,0.00,0.0,custom,2013-01-11 15:01:00,
2013-01-11 07:06:00,32.9,30.0,30.34,SSW,207,0.0,0.0,89,0.00,,,0.00,0.0,custom,2013-01-11 15:06:00,
2013-01-11 07:11:00,32.9,30.0,30.34,SSW,207,0.0,0.0,89,0.00,,,0.00,0.0,custom,2013-01-11 15:11:00,
2013-01-11 07:16:00,32.7,29.8,30.34,SSW,206,0.0,0.0,89,0.00,,,0.00,0.0,custom,2013-01-11 15:16:00,
2013-01-11 07:21:00,32.6,29.7,30.34,SSW,207,0.0,0.0,89,0.00,,,0.00,0.0,custom,2013-01-11 15:21:00,
2013-01-11 07:26:00,32.5,29.6,30.34,SSW,206,0.0,0.0,89,0.00,,,0.00,5.0,custom,2013-01-11 15:26:00,
2013-01-11 07:31:00,32.5,29.6,30.35,SSW,206,0.0,0.0,89,0.00,,,0.00,9.0,custom,2013-01-11 15:31:00,
2013-01-11 07:36:00,32.5,29.6,30.35,SSW,207,0.0,0.0,89,0.00,,,0.00,12.0,custom,2013-01-11 15:36:00,
2013-01-11 07:41:00,32.4,29.5,30.35,SSW,207,0.0,0.0,89,0.00,,,0.00,14.0,custom,2013-01-11 15:41:00,
2013-01-11 07:46:00,32.4,29.5,30.35,SSW,207,0.0,0.0,89,0.00,,,0.00,18.0,custom,2013-01-11 15:46:00,
2013-01-11 07:51:00,32.5,29.6,30.36,SSW,206,0.0,0.0,89,0.00,,,0.00,19.0,custom,2013-01-11 15:51:00,
2013-01-11 07:56:00,32.6,29.7,30.36,SSW,207,0.0,0.0,89,0.00,,,0.00,23.0,custom,2013-01-11 15:56:00,
2013-01-11 08:01:00,32.8,29.9,30.36,SSW,209,0.0,0.0,89,0.00,,,0.00,25.0,custom,2013-01-11 16:01:00,
2013-01-11 08:06:00,33.0,29.8,30.36,SSW,209,0.0,0.0,88,0.00,,,0.00,26.0,custom,2013-01-11 16:06:00,
2013-01-11 08:11:00,33.4,30.2,30.36,SSW,209,0.0,0.0,88,0.00,,,0.00,40.0,custom,2013-01-11 16:11:00,
2013-01-11 08:16:00,33.7,30.5,30.36,SSW,209,0.0,0.0,88,0.00,,,0.00,60.0,custom,2013-01-11 16:16:00,
2013-01-11 08:21:00,33.9,30.7,30.36,SSW,209,0.0,0.0,88,0.00,,,0.00,54.0,custom,2013-01-11 16:21:00,
2013-01-11 08:26:00,34.4,31.2,30.36,SSW,209,0.0,0.0,88,0.00,,,0.00,79.0,custom,2013-01-11 16:26:00,
2013-01-11 08:31:00,34.4,31.2,30.36,SSW,209,0.0,0.0,88,0.00,,,0.00,39.0,custom,2013-01-11 16:31:00,
2013-01-11 08:36:00,34.9,31.4,30.36,SSW,209,0.0,0.0,87,0.00,,,0.00,39.0,custom,2013-01-11 16:36:00,
2013-01-11 08:41:00,35.5,32.0,30.37,SSW,209,0.0,0.0,87,0.00,,,0.00,44.0,custom,2013-01-11 16:41:00,
2013-01-11 08:46:00,36.0,32.5,30.37,SSW,209,0.0,0.0,87,0.00,,,0.00,104.0,custom,2013-01-11 16:46:00,
2013-01-11 08:51:00,36.8,33.3,30.37,SSW,209,0.0,0.0,87,0.00,,,0.00,137.0,custom,2013-01-11 16:51:00,
2013-01-11 08:56:00,37.8,34.6,30.37,SSW,209,0.0,0.0,88,0.00,,,0.00,165.0,custom,2013-01-11 16:56:00,
2013-01-11 09:01:00,38.4,35.4,30.37,SSW,209,0.0,0.0,89,0.00,,,0.00,162.0,custom,2013-01-11 17:01:00,
2013-01-11 09:06:00,39.6,36.1,30.37,SSW,209,0.0,0.0,87,0.00,,,0.00,192.0,custom,2013-01-11 17:06:00,
2013-01-11 09:11:00,40.8,36.3,30.36,SSW,209,0.0,0.0,84,0.00,,,0.00,144.0,custom,2013-01-11 17:11:00,
2013-01-11 09:16:00,41.8,36.1,30.37,SSW,209,0.0,0.0,80,0.00,,,0.00,141.0,custom,2013-01-11 17:16:00,
2013-01-11 09:21:00,42.4,35.7,30.37,ESE,107,0.0,1.0,77,0.00,,,0.00,142.0,custom,2013-01-11 17:21:00,
2013-01-11 09:26:00,42.9,35.2,30.37,ENE,76,0.0,0.0,74,0.00,,,0.00,148.0,custom,2013-01-11 17:26:00,
2013-01-11 09:31:00,43.3,35.2,30.36,East,93,0.0,0.0,73,0.00,,,0.00,156.0,custom,2013-01-11 17:31:00,
2013-01-11 09:36:00,43.6,35.2,30.36,East,92,0.0,0.0,72,0.00,,,0.00,163.0,custom,2013-01-11 17:36:00,
2013-01-11 09:41:00,43.8,35.7,30.36,East,92,0.0,0.0,73,0.00,,,0.00,163.0,custom,2013-01-11 17:41:00,
2013-01-11 09:46:00,44.2,35.8,30.36,East,93,0.0,0.0,72,0.00,,,0.00,172.0,custom,2013-01-11 17:46:00,
2013-01-11 09:51:00,44.5,35.7,30.36,East,93,0.0,0.0,71,0.00,,,0.00,209.0,custom,2013-01-11 17:51:00,
2013-01-11 09:56:00,44.9,36.1,30.36,East,92,0.0,0.0,71,0.00,,,0.00,195.0,custom,2013-01-11 17:56:00,
2013-01-11 10:01:00,45.1,35.2,30.36,East,92,0.0,0.0,68,0.00,,,0.00,207.0,custom,2013-01-11 18:01:00,
2013-01-11 10:06:00,45.4,35.1,30.36,East,93,0.0,0.0,67,0.00,,,0.00,204.0,custom,2013-01-11 18:06:00,
2013-01-11 10:11:00,45.7,35.4,30.36,East,93,0.0,0.0,67,0.00,,,0.00,204.0,custom,2013-01-11 18:11:00,
2013-01-11 10:16:00,46.0,35.3,30.36,SSE,164,0.0,0.0,66,0.00,,,0.00,181.0,custom,2013-01-11 18:16:00,
2013-01-11 10:21:00,46.2,35.9,30.36,NNW,337,0.0,0.0,67,0.00,,,0.00,229.0,custom,2013-01-11 18:21:00,
2013-01-11 10:26:00,46.4,35.7,30.36,NNW,348,0.0,0.0,66,0.00,,,0.00,229.0,custom,2013-01-11 18:26:00,
2013-01-11 10:31:00,46.7,35.6,30.36,NNW,348,0.0,0.0,65,0.00,,,0.00,244.0,custom,2013-01-11 18:31:00,
2013-01-11 10:36:00,47.0,35.5,30.35,NNW,348,0.0,0.0,64,0.00,,,0.00,220.0,custom,2013-01-11 18:36:00,
2013-01-11 10:41:00,47.2,36.0,30.35,NNW,345,0.0,1.0,65,0.00,,,0.00,227.0,custom,2013-01-11 18:41:00,
2013-01-11 10:46:00,47.4,36.2,30.35,NNW,345,0.0,0.0,65,0.00,,,0.00,176.0,custom,2013-01-11 18:46:00,
2013-01-11 10:51:00,47.7,36.1,30.35,North,351,1.0,1.0,64,0.00,,,0.00,517.0,custom,2013-01-11 18:51:00,
2013-01-11 10:56:00,48.0,36.4,30.34,North,350,1.0,1.0,64,0.00,,,0.00,508.0,custom,2013-01-11 18:56:00,
2013-01-11 11:01:00,48.5,36.5,30.34,North,350,1.0,0.0,63,0.00,,,0.00,533.0,custom,2013-01-11 19:01:00,
2013-01-11 11:06:00,49.0,37.0,30.34,West,281,0.0,0.0,63,0.00,,,0.00,283.0,custom,2013-01-11 19:06:00,
2013-01-11 11:11:00,49.4,36.5,30.33,NNW,329,0.0,0.0,61,0.00,,,0.00,216.0,custom,2013-01-11 19:11:00,
2013-01-11 11:16:00,49.5,37.0,30.33,North,360,1.0,1.0,62,0.00,,,0.00,336.0,custom,2013-01-11 19:16:00,
2013-01-11 11:21:00,49.6,37.1,30.33,North,9,1.0,0.0,62,0.00,,,0.00,294.0,custom,2013-01-11 19:21:00,
2013-01-11 11:26:00,49.8,36.9,30.32,North,9,0.0,0.0,61,0.00,,,0.00,274.0,custom,2013-01-11 19:26:00,
2013-01-11 11:31:00,49.9,37.4,30.32,NNE,18,0.0,0.0,62,0.00,,,0.00,378.0,custom,2013-01-11 19:31:00,
2013-01-11 11:36:00,50.2,37.3,30.32,NNW,334,1.0,2.0,61,0.00,,,0.00,309.0,custom,2013-01-11 19:36:00,
2013-01-11 11:41:00,50.3,37.0,30.31,NW,319,1.0,2.0,60,0.00,,,0.00,304.0,custom,2013-01-11 19:41:00,
2013-01-11 11:46:00,50.4,37.0,30.31,NW,319,1.0,0.0,60,0.00,,,0.00,322.0,custom,2013-01-11 19:46:00,
2013-01-11 11:51:00,50.5,37.6,30.30,NW,321,1.0,1.0,61,0.00,,,0.00,408.0,custom,2013-01-11 19:51:00,
2013-01-11 11:56:00,50.8,37.4,30.30,North,360,1.0,0.0,60,0.00,,,0.00,350.0,custom,2013-01-11 19:56:00,
2013-01-11 12:01:00,51.1,37.7,30.30,North,9,1.0,0.0,60,0.00,,,0.00,218.0,custom,2013-01-11 20:01:00,
2013-01-11 12:06:00,51.1,36.8,30.29,NW,306,1.0,1.0,58,0.00,,,0.00,499.0,custom,2013-01-11 20:06:00,
2013-01-11 12:11:00,51.0,36.3,30.29,North,11,1.0,2.0,57,0.00,,,0.00,199.0,custom,2013-01-11 20:11:00,
2013-01-11 12:16:00,51.1,37.3,30.29,North,11,1.0,0.0,59,0.00,,,0.00,429.0,custom,2013-01-11 20:16:00,
2013-01-11 12:21:00,51.3,37.0,30.29,NE,53,1.0,0.0,58,0.00,,,0.00,323.0,custom,2013-01-11 20:21:00,
2013-01-11 12:26:00,51.3,37.0,30.29,North,360,1.0,2.0,58,0.00,,,0.00,392.0,custom,2013-01-11 20:26:00,
2013-01-11 12:31:00,51.3,37.0,30.28,NNE,18,2.0,0.0,58,0.00,,,0.00,425.0,custom,2013-01-11 20:31:00,
2013-01-11 12:36:00,51.4,37.1,30.28,ENE,65,1.0,0.0,58,0.00,,,0.00,536.0,custom,2013-01-11 20:36:00,
2013-01-11 12:41:00,51.7,37.8,30.28,NNE,21,0.0,0.0,59,0.00,,,0.00,506.0,custom,2013-01-11 20:41:00,
2013-01-11 12:46:00,52.0,37.7,30.27,NNE,26,0.0,0.0,58,0.00,,,0.00,512.0,custom,2013-01-11 20:46:00,
2013-01-11 12:51:00,52.2,37.0,30.27,WNW,302,1.0,0.0,56,0.00,,,0.00,526.0,custom,2013-01-11 20:51:00,
2013-01-11 12:56:00,52.6,37.8,30.27,North,9,1.0,6.0,57,0.00,,,0.00,508.0,custom,2013-01-11 20:56:00,
2013-01-11 13:01:00,53.0,36.8,30.26,North,355,1.0,0.0,54,0.00,,,0.00,424.0,custom,2013-01-11 21:01:00,
2013-01-11 13:06:00,53.2,37.5,30.26,NW,314,1.0,2.0,55,0.00,,,0.00,475.0,custom,2013-01-11 21:06:00,
2013-01-11 13:11:00,53.4,38.1,30.26,NNW,341,1.0,0.0,56,0.00,,,0.00,475.0,custom,2013-01-11 21:11:00,
2013-01-11 13:16:00,53.7,37.9,30.26,NW,324,1.0,1.0,55,0.00,,,0.00,295.0,custom,2013-01-11 21:16:00,
2013-01-11 13:21:00,53.6,37.8,30.26,North,355,1.0,0.0,55,0.00,,,0.00,292.0,custom,2013-01-11 21:21:00,
2013-01-11 13:26:00,53.4,37.6,30.26,WNW,288,1.0,1.0,55,0.00,,,0.00,285.0,custom,2013-01-11 21:26:00,
2013-01-11 13:31:00,53.3,37.5,30.26,WNW,288,1.0,0.0,55,0.00,,,0.00,244.0,custom,2013-01-11 21:31:00,
2013-01-11 13:36:00,53.2,37.9,30.25,NW,319,0.0,0.0,56,0.00,,,0.00,229.0,custom,2013-01-11 21:36:00,
2013-01-11 13:41:00,53.2,38.4,30.26,NNW,346,1.0,2.0,57,0.00,,,0.00,213.0,custom,2013-01-11 21:41:00,
2013-01-11 13:46:00,53.2,38.4,30.25,North,11,1.0,1.0,57,0.00,,,0.00,244.0,custom,2013-01-11 21:46:00,
2013-01-11 13:51:00,53.2,38.4,30.25,NW,313,1.0,0.0,57,0.00,,,0.00,209.0,custom,2013-01-11 21:51:00,
2013-01-11 13:56:00,53.2,38.8,30.25,West,269,0.0,2.0,58,0.00,,,0.00,181.0,custom,2013-01-11 21:56:00,
2013-01-11 14:01:00,53.1,39.2,30.25,NNE,32,1.0,0.0,59,0.00,,,0.00,169.0,custom,2013-01-11 22:01:00,
2013-01-11 14:06:00,52.8,38.9,30.24,NNW,333,1.0,0.0,59,0.00,,,0.00,144.0,custom,2013-01-11 22:06:00,
2013-01-11 14:11:00,52.6,38.7,30.24,WNW,298,1.0,0.0,59,0.00,,,0.00,121.0,custom,2013-01-11 22:11:00,
2013-01-11 14:16:00,52.5,39.0,30.24,NNW,345,1.0,2.0,60,0.00,,,0.00,137.0,custom,2013-01-11 22:16:00,
2013-01-11 14:21:00,52.4,39.3,30.24,West,281,1.0,1.0,61,0.00,,,0.00,155.0,custom,2013-01-11 22:21:00,
2013-01-11 14:26:00,52.4,39.3,30.24,NW,315,1.0,0.0,61,0.00,,,0.00,116.0,custom,2013-01-11 22:26:00,
2013-01-11 14:31:00,52.5,39.9,30.24,NNW,348,1.0,0.0,62,0.00,,,0.00,141.0,custom,2013-01-11 22:31:00,
2013-01-11 14:36:00,52.6,40.0,30.24,NNW,348,0.0,0.0,62,0.00,,,0.00,142.0,custom,2013-01-11 22:36:00,
2013-01-11 14:41:00,52.7,39.6,30.24,WSW,244,0.0,0.0,61,0.00,,,0.00,135.0,custom,2013-01-11 22:41:00,
2013-01-11 14:46:00,52.8,40.6,30.24,WSW,244,0.0,0.0,63,0.00,,,0.00,128.0,custom,2013-01-11 22:46:00,
2013-01-11 14:51:00,52.8,40.1,30.24,SSE,167,0.0,0.0,62,0.00,,,0.00,116.0,custom,2013-01-11 22:51:00,
2013-01-11 14:56:00,52.7,40.5,30.24,SSE,167,0.0,0.0,63,0.00,,,0.00,107.0,custom,2013-01-11 22:56:00,
2013-01-11 15:01:00,52.7,40.5,30.24,SSW,203,0.0,0.0,63,0.00,,,0.00,105.0,custom,2013-01-11 23:01:00,
2013-01-11 15:06:00,52.6,40.8,30.24,SSW,207,0.0,0.0,64,0.00,,,0.00,95.0,custom,2013-01-11 23:06:00,
2013-01-11 15:11:00,52.5,40.3,30.23,ENE,60,0.0,0.0,63,0.00,,,0.00,91.0,custom,2013-01-11 23:11:00,
2013-01-11 15:16:00,52.4,40.6,30.23,WSW,248,0.0,0.0,64,0.00,,,0.00,98.0,custom,2013-01-11 23:16:00,
2013-01-11 15:21:00,52.3,40.5,30.23,NNE,19,0.0,0.0,64,0.00,,,0.00,109.0,custom,2013-01-11 23:21:00,
2013-01-11 15:26:00,52.2,40.4,30.23,NW,311,0.0,1.0,64,0.00,,,0.00,79.0,custom,2013-01-11 23:26:00,
2013-01-11 15:31:00,52.0,40.2,30.23,WNW,289,0.0,0.0,64,0.00,,,0.00,86.0,custom,2013-01-11 23:31:00,
2013-01-11 15:36:00,51.8,40.0,30.23,SSE,165,0.0,0.0,64,0.00,,,0.00,90.0,custom,2013-01-11 23:36:00,
2013-01-11 15:41:00,51.6,40.2,30.23,SSE,165,0.0,0.0,65,0.00,,,0.00,72.0,custom,2013-01-11 23:41:00,
2013-01-11 15:46:00,51.5,40.5,30.23,WNW,291,0.0,0.0,66,0.00,,,0.00,54.0,custom,2013-01-11 23:46:00,
2013-01-11 15:51:00,51.5,40.1,30.23,East,81,0.0,0.0,65,0.00,,,0.00,46.0,custom,2013-01-11 23:51:00,
2013-01-11 15:56:00,51.5,40.5,30.22,East,80,0.0,0.0,66,0.00,,,0.00,32.0,custom,2013-01-11 23:56:00,
2013-01-11 16:01:00,51.4,40.0,30.22,WNW,292,1.0,0.0,65,0.00,,,0.00,25.0,custom,2013-01-12 00:01:00,
2013-01-11 16:06:00,51.2,40.2,30.22,WNW,284,1.0,1.0,66,0.00,,,0.00,26.0,custom,2013-01-12 00:06:00,
2013-01-11 16:11:00,50.9,40.3,30.22,NW,305,0.0,0.0,67,0.00,,,0.00,23.0,custom,2013-01-12 00:11:00,
2013-01-11 16:16:00,50.7,40.1,30.22,SSW,210,0.0,0.0,67,0.00,,,0.00,19.0,custom,2013-01-12 00:16:00,
2013-01-11 16:21:00,50.4,40.2,30.23,SSW,202,0.0,0.0,68,0.00,,,0.00,19.0,custom,2013-01-12 00:21:00,
2013-01-11 16:26:00,50.2,40.4,30.23,SSW,202,0.0,0.0,69,0.00,,,0.00,19.0,custom,2013-01-12 00:26:00,
2013-01-11 16:31:00,49.9,40.1,30.23,SSW,203,0.0,0.0,69,0.00,,,0.00,18.0,custom,2013-01-12 00:31:00,
2013-01-11 16:36:00,49.7,40.3,30.22,SSW,202,0.0,0.0,70,0.00,,,0.00,18.0,custom,2013-01-12 00:36:00,
2013-01-11 16:41:00,49.4,40.0,30.22,SSW,202,0.0,0.0,70,0.00,,,0.00,14.0,custom,2013-01-12 00:41:00,
2013-01-11 16:51:00,49.0,40.4,30.22,SSW,203,0.0,0.0,72,0.00,,,0.00,11.0,custom,2013-01-12 00:51:00,
2013-01-11 16:56:00,48.7,40.1,30.22,WNW,300,0.0,0.0,72,0.00,,,0.00,9.0,custom,2013-01-12 00:56:00,
2013-01-11 17:06:00,48.1,40.2,30.22,NNE,15,0.0,0.0,74,0.00,,,0.00,5.0,custom,2013-01-12 01:06:00,
2013-01-11 17:11:00,47.9,40.0,30.22,NNE,15,0.0,0.0,74,0.00,,,0.00,0.0,custom,2013-01-12 01:11:00,
2013-01-11 17:16:00,47.6,40.1,30.22,NNE,15,0.0,0.0,75,0.00,,,0.00,0.0,custom,2013-01-12 01:16:00,
2013-01-11 17:21:00,47.3,39.8,30.21,NNE,15,0.0,0.0,75,0.00,,,0.00,0.0,custom,2013-01-12 01:21:00,
2013-01-11 17:26:00,47.0,39.8,30.22,NNE,15,0.0,0.0,76,0.00,,,0.00,0.0,custom,2013-01-12 01:26:00,
2013-01-11 17:31:00,46.7,39.9,30.22,NNE,15,0.0,0.0,77,0.00,,,0.00,0.0,custom,2013-01-12 01:31:00,
2013-01-11 17:36:00,46.4,39.6,30.22,NNE,15,0.0,0.0,77,0.00,,,0.00,0.0,custom,2013-01-12 01:36:00,
2013-01-11 17:41:00,46.1,39.6,30.22,NNE,15,0.0,0.0,78,0.00,,,0.00,0.0,custom,2013-01-12 01:41:00,
2013-01-11 17:46:00,45.9,39.8,30.22,NNE,15,0.0,0.0,79,0.00,,,0.00,0.0,custom,2013-01-12 01:46:00,
2013-01-11 17:51:00,45.6,39.5,30.22,NNE,15,0.0,0.0,79,0.00,,,0.00,0.0,custom,2013-01-12 01:51:00,
2013-01-11 17:56:00,45.2,39.4,30.22,NNE,15,0.0,0.0,80,0.00,,,0.00,0.0,custom,2013-01-12 01:56:00,
2013-01-11 18:01:00,45.0,39.2,30.22,NNE,15,0.0,0.0,80,0.00,,,0.00,0.0,custom,2013-01-12 02:01:00,
2013-01-11 18:06:00,44.6,39.1,30.23,NNE,15,0.0,0.0,81,0.00,,,0.00,0.0,custom,2013-01-12 02:06:00,
2013-01-11 18:11:00,44.3,39.2,30.22,NNE,15,0.0,0.0,82,0.00,,,0.00,0.0,custom,2013-01-12 02:11:00,
2013-01-11 18:16:00,44.1,39.0,30.22,NNE,15,0.0,0.0,82,0.00,,,0.00,0.0,custom,2013-01-12 02:16:00,
2013-01-11 18:21:00,43.8,39.0,30.22,NNE,15,0.0,0.0,83,0.00,,,0.00,0.0,custom,2013-01-12 02:21:00,
2013-01-11 18:26:00,43.6,38.8,30.22,NNE,15,0.0,0.0,83,0.00,,,0.00,0.0,custom,2013-01-12 02:26:00,
2013-01-11 18:31:00,43.4,38.9,30.22,NNE,15,0.0,0.0,84,0.00,,,0.00,0.0,custom,2013-01-12 02:31:00,
2013-01-11 18:41:00,42.9,38.4,30.22,NNE,15,0.0,0.0,84,0.00,,,0.00,0.0,custom,2013-01-12 02:41:00,
2013-01-11 18:46:00,42.7,38.5,30.22,NNE,15,0.0,0.0,85,0.00,,,0.00,0.0,custom,2013-01-12 02:46:00,
2013-01-11 18:51:00,42.6,38.4,30.23,NNE,15,0.0,0.0,85,0.00,,,0.00,0.0,custom,2013-01-12 02:51:00,
2013-01-11 18:56:00,42.4,38.5,30.23,NNE,15,0.0,0.0,86,0.00,,,0.00,0.0,custom,2013-01-12 02:56:00,
2013-01-11 19:01:00,42.3,38.4,30.22,NNE,15,0.0,0.0,86,0.00,,,0.00,0.0,custom,2013-01-12 03:01:00,
2013-01-11 19:06:00,42.2,38.3,30.23,NNE,15,0.0,0.0,86,0.00,,,0.00,0.0,custom,2013-01-12 03:06:00,
2013-01-11 19:11:00,42.0,38.1,30.23,NNE,15,0.0,0.0,86,0.00,,,0.00,0.0,custom,2013-01-12 03:11:00,
2013-01-11 19:16:00,41.9,38.0,30.23,NNE,15,0.0,0.0,86,0.00,,,0.00,0.0,custom,2013-01-12 03:16:00,
2013-01-11 19:21:00,41.8,37.9,30.23,NNE,15,0.0,0.0,86,0.00,,,0.00,0.0,custom,2013-01-12 03:21:00,
2013-01-11 19:26:00,41.6,38.0,30.23,NNE,15,0.0,0.0,87,0.00,,,0.00,0.0,custom,2013-01-12 03:26:00,
2013-01-11 19:31:00,41.5,37.9,30.22,NNE,15,0.0,0.0,87,0.00,,,0.00,0.0,custom,2013-01-12 03:31:00,
2013-01-11 19:36:00,41.5,37.9,30.23,NNE,15,0.0,0.0,87,0.00,,,0.00,0.0,custom,2013-01-12 03:36:00,
2013-01-11 19:41:00,41.6,38.0,30.22,NNE,15,0.0,0.0,87,0.00,,,0.00,0.0,custom,2013-01-12 03:41:00,
2013-01-11 19:46:00,41.6,38.0,30.22,NNE,15,0.0,0.0,87,0.00,,,0.00,0.0,custom,2013-01-12 03:46:00,
2013-01-11 19:51:00,41.6,38.0,30.22,NNE,15,0.0,0.0,87,0.00,,,0.00,0.0,custom,2013-01-12 03:51:00,
2013-01-11 19:56:00,41.6,38.0,30.22,NNE,15,0.0,0.0,87,0.00,,,0.00,0.0,custom,2013-01-12 03:56:00,
2013-01-11 20:01:00,41.5,37.9,30.22,NNE,15,0.0,0.0,87,0.00,,,0.00,0.0,custom,2013-01-12 04:01:00,
2013-01-11 20:06:00,41.5,37.9,30.22,NNE,15,0.0,0.0,87,0.00,,,0.00,0.0,custom,2013-01-12 04:06:00,
2013-01-11 20:11:00,41.3,37.7,30.22,NNE,15,0.0,0.0,87,0.00,,,0.00,0.0,custom,2013-01-12 04:11:00,
2013-01-11 20:16:00,41.2,37.6,30.22,NNE,15,0.0,0.0,87,0.00,,,0.00,0.0,custom,2013-01-12 04:16:00,
2013-01-11 20:21:00,41.1,37.5,30.22,NNE,15,0.0,0.0,87,0.00,,,0.00,0.0,custom,2013-01-12 04:21:00,
2013-01-11 20:26:00,40.9,37.3,30.22,NNE,15,0.0,0.0,87,0.00,,,0.00,0.0,custom,2013-01-12 04:26:00,
2013-01-11 20:31:00,40.8,37.5,30.23,NNE,15,0.0,0.0,88,0.00,,,0.00,0.0,custom,2013-01-12 04:31:00,
2013-01-11 20:36:00,40.7,37.4,30.23,NNE,15,0.0,0.0,88,0.00,,,0.00,0.0,custom,2013-01-12 04:36:00,
2013-01-11 20:41:00,40.5,37.2,30.23,NNE,15,0.0,0.0,88,0.00,,,0.00,0.0,custom,2013-01-12 04:41:00,
2013-01-11 20:46:00,40.4,37.1,30.23,NNE,15,0.0,0.0,88,0.00,,,0.00,0.0,custom,2013-01-12 04:46:00,
2013-01-11 20:51:00,40.4,37.1,30.23,NNE,15,0.0,0.0,88,0.00,,,0.00,0.0,custom,2013-01-12 04:51:00,
2013-01-11 20:56:00,40.2,36.9,30.24,NNE,15,0.0,0.0,88,0.00,,,0.00,0.0,custom,2013-01-12 04:56:00,
2013-01-11 21:01:00,40.1,36.8,30.24,NNE,15,0.0,0.0,88,0.00,,,0.00,0.0,custom,2013-01-12 05:01:00,
2013-01-11 21:06:00,40.0,36.7,30.24,NNE,15,0.0,0.0,88,0.00,,,0.00,0.0,custom,2013-01-12 05:06:00,
2013-01-11 21:11:00,40.2,36.9,30.24,NNE,15,0.0,0.0,88,0.00,,,0.00,0.0,custom,2013-01-12 05:11:00,
2013-01-11 21:16:00,40.3,37.0,30.24,NNE,15,0.0,0.0,88,0.00,,,0.00,0.0,custom,2013-01-12 05:16:00,
2013-01-11 21:21:00,40.4,37.1,30.24,NNE,15,0.0,0.0,88,0.00,,,0.00,0.0,custom,2013-01-12 05:21:00,
2013-01-11 21:26:00,40.4,37.1,30.25,NNE,15,0.0,0.0,88,0.00,,,0.00,0.0,custom,2013-01-12 05:26:00,
2013-01-11 21:31:00,40.4,37.1,30.25,NNE,15,0.0,0.0,88,0.00,,,0.00,0.0,custom,2013-01-12 05:31:00,
2013-01-11 21:36:00,40.5,37.2,30.25,NNE,15,0.0,0.0,88,0.00,,,0.00,0.0,custom,2013-01-12 05:36:00,
2013-01-11 21:41:00,40.7,37.4,30.25,NNE,15,0.0,0.0,88,0.00,,,0.00,0.0,custom,2013-01-12 05:41:00,
2013-01-11 21:46:00,40.9,37.6,30.25,NNE,15,0.0,0.0,88,0.00,,,0.00,0.0,custom,2013-01-12 05:46:00,
2013-01-11 21:51:00,41.1,37.8,30.25,ESE,123,0.0,0.0,88,0.00,,,0.00,0.0,custom,2013-01-12 05:51:00,
2013-01-11 21:56:00,41.1,37.8,30.26,NNE,24,1.0,1.0,88,0.00,,,0.00,0.0,custom,2013-01-12 05:56:00,
2013-01-11 22:01:00,41.5,37.3,30.26,ENE,76,1.0,0.0,85,0.00,,,0.00,0.0,custom,2013-01-12 06:01:00,
2013-01-11 22:11:00,41.9,36.8,30.25,East,79,0.0,0.0,82,0.00,,,0.00,0.0,custom,2013-01-12 06:11:00,
2013-01-11 22:16:00,42.0,36.9,30.25,East,80,0.0,0.0,82,0.00,,,0.00,0.0,custom,2013-01-12 06:16:00,
2013-01-11 22:21:00,42.0,36.9,30.25,East,80,0.0,0.0,82,0.00,,,0.00,0.0,custom,2013-01-12 06:21:00,
2013-01-11 22:26:00,41.9,36.8,30.25,East,80,0.0,0.0,82,0.00,,,0.00,0.0,custom,2013-01-12 06:26:00,
2013-01-11 22:31:00,41.7,36.6,30.25,East,80,0.0,0.0,82,0.00,,,0.00,0.0,custom,2013-01-12 06:31:00,
2013-01-11 22:36:00,41.5,36.4,30.25,East,80,0.0,0.0,82,0.00,,,0.00,0.0,custom,2013-01-12 06:36:00,
2013-01-11 22:41:00,41.4,36.6,30.25,East,80,0.0,0.0,83,0.00,,,0.00,0.0,custom,2013-01-12 06:41:00,
2013-01-11 22:46:00,41.1,36.3,30.26,East,79,0.0,0.0,83,0.00,,,0.00,0.0,custom,2013-01-12 06:46:00,
2013-01-11 22:51:00,40.8,36.0,30.26,East,80,0.0,0.0,83,0.00,,,0.00,0.0,custom,2013-01-12 06:51:00,
2013-01-11 22:56:00,40.5,36.1,30.25,East,80,0.0,0.0,84,0.00,,,0.00,0.0,custom,2013-01-12 06:56:00,
2013-01-11 23:01:00,40.3,35.9,30.25,East,80,0.0,0.0,84,0.00,,,0.00,0.0,custom,2013-01-12 07:01:00,
2013-01-11 23:06:00,40.0,35.6,30.25,East,79,0.0,0.0,84,0.00,,,0.00,0.0,custom,2013-01-12 07:06:00,
2013-01-11 23:11:00,39.7,35.6,30.25,East,80,0.0,0.0,85,0.00,,,0.00,0.0,custom,2013-01-12 07:11:00,
2013-01-11 23:16:00,39.5,35.7,30.25,East,80,0.0,0.0,86,0.00,,,0.00,0.0,custom,2013-01-12 07:16:00,
2013-01-11 23:21:00,39.2,35.4,30.26,East,79,0.0,0.0,86,0.00,,,0.00,0.0,custom,2013-01-12 07:21:00,
2013-01-11 23:26:00,39.0,35.2,30.26,East,79,0.0,0.0,86,0.00,,,0.00,0.0,custom,2013-01-12 07:26:00,
2013-01-11 23:31:00,38.7,34.9,30.26,East,80,0.0,0.0,86,0.00,,,0.00,0.0,custom,2013-01-12 07:31:00,
2013-01-11 23:36:00,38.5,34.7,30.26,East,80,0.0,0.0,86,0.00,,,0.00,0.0,custom,2013-01-12 07:36:00,
2013-01-11 23:41:00,38.2,34.4,30.26,East,80,0.0,0.0,86,0.00,,,0.00,0.0,custom,2013-01-12 07:41:00,
2013-01-11 23:46:00,37.9,34.4,30.26,East,80,0.0,0.0,87,0.00,,,0.00,0.0,custom,2013-01-12 07:46:00,
2013-01-11 23:51:00,37.8,34.3,30.27,East,80,0.0,0.0,87,0.00,,,0.00,0.0,custom,2013-01-12 07:51:00,
2013-01-11 23:56:00,37.6,34.1,30.26,East,79,0.0,0.0,87,0.00,,,0.00,0.0,custom,2013-01-12 07:56:00,